| time (UTC) | temp C | wind direction | speed KPH | gust KPH | rain 1hr cm | rain 24hr cm | rain mn cm | humidity % | barometer mb |
| 20260510024027 | 33 | 0.0 | 0.0 | 0.00 | 0.00 | 0.00 | 16 | 1002.6 | |
| 20260510023025 | 33 | 23 | 0.0 | 0.0 | 0.00 | 0.00 | 0.00 | 11 | 1002.5 |
| 20260510022040 | 33 | 2 | 1.6 | 1.6 | 0.00 | 0.00 | 0.00 | 10 | 1002.5 |
| 20260510021022 | 34 | 358 | 1.6 | 1.6 | 0.00 | 0.00 | 0.00 | 10 | 1002.4 |
| 20260510020029 | 35 | 345 | 1.6 | 1.6 | 0.00 | 0.00 | 0.00 | 10 | 1002.4 |
| 20260510015034 | 35 | 6 | 1.6 | 1.6 | 0.00 | 0.00 | 0.00 | 10 | 1002.2 |
| 20260510014022 | 35 | 313 | 1.6 | 1.6 | 0.00 | 0.00 | 0.00 | 10 | 1002.2 |
| 20260510013035 | 35 | 334 | 1.6 | 1.6 | 0.00 | 0.00 | 0.00 | 9 | 1002.2 |
| 20260510012019 | 36 | 334 | 1.6 | 1.6 | 0.00 | 0.00 | 0.00 | 9 | 1002.2 |
| 20260510011046 | 36 | 244 | 1.6 | 1.6 | 0.00 | 0.00 | 0.00 | 9 | 1002.2 |
| 20260510010032 | 36 | 329 | 3.2 | 3.2 | 0.00 | 0.00 | 0.00 | 9 | 1002.2 |
| 20260510005026 | 36 | 276 | 1.6 | 1.6 | 0.00 | 0.00 | 0.00 | 9 | 1002.2 |
| 20260510004024 | 36 | 281 | 1.6 | 3.2 | 0.00 | 0.00 | 0.00 | 9 | 1002.2 |
| 20260510003022 | 36 | 286 | 3.2 | 3.2 | 0.00 | 0.00 | 0.00 | 9 | 1002.3 |
| 20260510002022 | 37 | 282 | 3.2 | 3.2 | 0.00 | 0.00 | 0.00 | 9 | 1002.3 |
| 20260510001028 | 37 | 281 | 3.2 | 3.2 | 0.00 | 0.00 | 0.00 | 9 | 1002.4 |
| 20260510000036 | 37 | 283 | 3.2 | 3.2 | 0.00 | 0.00 | 0.00 | 9 | 1002.5 |
| 20260509235031 | 37 | 309 | 4.8 | 4.8 | 0.00 | 0.00 | 0.00 | 9 | 1002.6 |
| 20260509234032 | 37 | 335 | 3.2 | 3.2 | 0.00 | 0.00 | 0.00 | 9 | 1002.6 |
| 20260509233019 | 37 | 307 | 3.2 | 3.2 | 0.00 | 0.00 | 0.00 | 9 | 1002.7 |
| 20260509232026 | 37 | 273 | 3.2 | 3.2 | 0.00 | 0.00 | 0.00 | 9 | 1002.8 |
| 20260509231031 | 37 | 318 | 4.8 | 4.8 | 0.00 | 0.00 | 0.00 | 9 | 1002.8 |
| 20260509230037 | 37 | 256 | 3.2 | 3.2 | 0.00 | 0.00 | 0.00 | 9 | 1003.0 |
| 20260509225045 | 37 | 277 | 3.2 | 3.2 | 0.00 | 0.00 | 0.00 | 9 | 1003.0 |
| 20260509224043 | 37 | 276 | 3.2 | 3.2 | 0.00 | 0.00 | 0.00 | 9 | 1003.3 |
| 20260509223022 | 38 | 285 | 4.8 | 4.8 | 0.00 | 0.00 | 0.00 | 9 | 1003.3 |
| 20260509222028 | 37 | 327 | 3.2 | 3.2 | 0.00 | 0.00 | 0.00 | 10 | 1003.4 |
| 20260509221025 | 38 | 16 | 3.2 | 3.2 | 0.00 | 0.00 | 0.00 | 10 | 1003.5 |
| 20260509220034 | 38 | 253 | 4.8 | 4.8 | 0.00 | 0.00 | 0.00 | 10 | 1003.7 |
| 20260509215033 | 37 | 301 | 3.2 | 3.2 | 0.00 | 0.00 | 0.00 | 10 | 1003.8 |
| 20260509214019 | 37 | 272 | 3.2 | 4.8 | 0.00 | 0.00 | 0.00 | 10 | 1004.0 |
| 20260509213029 | 37 | 260 | 3.2 | 3.2 | 0.00 | 0.00 | 0.00 | 9 | 1004.0 |
| 20260509212023 | 37 | 228 | 4.8 | 4.8 | 0.00 | 0.00 | 0.00 | 10 | 1004.2 |
| 20260509211025 | 38 | 243 | 3.2 | 3.2 | 0.00 | 0.00 | 0.00 | 10 | 1004.4 |
| 20260509210025 | 38 | 266 | 3.2 | 3.2 | 0.00 | 0.00 | 0.00 | 10 | 1004.6 |
| 20260509205022 | 38 | 216 | 3.2 | 3.2 | 0.00 | 0.00 | 0.00 | 10 | 1004.8 |
| 20260509204022 | 37 | 278 | 3.2 | 3.2 | 0.00 | 0.00 | 0.00 | 10 | |
| 20260509203049 | 37 | 267 | 3.2 | 3.2 | 0.00 | 0.00 | 0.00 | 10 | 1005.1 |
| 20260509202034 | 37 | 254 | 3.2 | 4.8 | 0.00 | 0.00 | 0.00 | 10 | 1005.3 |
| 20260509201042 | 37 | 327 | 4.8 | 4.8 | 0.00 | 0.00 | 0.00 | 12 | 1005.4 |
| 20260509200046 | 37 | 290 | 3.2 | 3.2 | 0.00 | 0.00 | 0.00 | 11 | 1005.6 |
| 20260509195019 | 37 | 268 | 3.2 | 4.8 | 0.00 | 0.00 | 0.00 | 12 | 1005.6 |
| 20260509194027 | 37 | 273 | 4.8 | 4.8 | 0.00 | 0.00 | 0.00 | 12 | 1005.7 |
| 20260509193024 | 37 | 279 | 3.2 | 3.2 | 0.00 | 0.00 | 0.00 | 12 | 1005.8 |
| 20260509192038 | 37 | 281 | 3.2 | 3.2 | 0.00 | 0.00 | 0.00 | 12 | 1005.9 |
| 20260509191045 | 36 | 279 | 3.2 | 3.2 | 0.00 | 0.00 | 0.00 | 12 | |
| 20260509190042 | 36 | 305 | 3.2 | 3.2 | 0.00 | 0.00 | 0.00 | 13 | 1006.3 |
| 20260509185103 | 36 | 343 | 3.2 | 3.2 | 0.00 | 0.00 | 0.00 | 13 | 1006.4 |
| 20260509184029 | 36 | 290 | 3.2 | 3.2 | 0.00 | 0.00 | 0.00 | 13 | |
| 20260509183041 | 35 | 276 | 1.6 | 1.6 | 0.00 | 0.00 | 0.00 | 14 | 1006.7 |
| 20260509182035 | 35 | 282 | 1.6 | 1.6 | 0.00 | 0.00 | 0.00 | 14 | 1006.8 |
| 20260509181053 | 35 | 277 | 3.2 | 3.2 | 0.00 | 0.00 | 0.00 | 15 | 1006.9 |
| 20260509180019 | 34 | 290 | 1.6 | 1.6 | 0.00 | 0.00 | 0.00 | 15 | 1007.0 |
| 20260509175033 | 33 | 245 | 1.6 | 1.6 | 0.00 | 0.00 | 0.00 | 15 | 1007.1 |
| 20260509174053 | 33 | 217 | 3.2 | 3.2 | 0.00 | 0.00 | 0.00 | 16 | 1007.1 |
| 20260509173025 | 33 | 294 | 1.6 | 1.6 | 0.00 | 0.00 | 0.00 | 16 | 1007.2 |
| 20260509172022 | 33 | 171 | 1.6 | 1.6 | 0.00 | 0.00 | 0.00 | 18 | 1007.2 |
| 20260509171020 | 32 | 307 | 1.6 | 1.6 | 0.00 | 0.00 | 0.00 | 18 | 1007.3 |
| 20260509170043 | 32 | 221 | 1.6 | 1.6 | 0.00 | 0.00 | 0.00 | 18 | 1007.4 |
| 20260509165029 | 32 | 307 | 1.6 | 1.6 | 0.00 | 0.00 | 0.00 | 19 | 1007.4 |
| 20260509164036 | 31 | 264 | 1.6 | 1.6 | 0.00 | 0.00 | 0.00 | 20 | 1007.4 |
| 20260509163027 | 31 | 212 | 1.6 | 1.6 | 0.00 | 0.00 | 0.00 | 20 | 1007.5 |
| 20260509162046 | 30 | 239 | 1.6 | 1.6 | 0.00 | 0.00 | 0.00 | 21 | 1007.5 |
| 20260509161019 | 30 | 174 | 1.6 | 1.6 | 0.00 | 0.00 | 0.00 | 21 | 1007.5 |
| 20260509160027 | 29 | 279 | 0.0 | 1.6 | 0.00 | 0.00 | 0.00 | 22 | 1007.6 |
| 20260509155031 | 28 | 224 | 1.6 | 1.6 | 0.00 | 0.00 | 0.00 | 22 | 1007.6 |
| 20260509154023 | 28 | 171 | 0.0 | 1.6 | 0.00 | 0.00 | 0.00 | 23 | 1007.6 |
| 20260509153039 | 28 | 174 | 0.0 | 1.6 | 0.00 | 0.00 | 0.00 | 23 | 1007.6 |
| 20260509152101 | 27 | 186 | 0.0 | 0.0 | 0.00 | 0.00 | 0.00 | 23 | 1007.5 |
| 20260509151042 | 27 | 156 | 0.0 | 0.0 | 0.00 | 0.00 | 0.00 | 24 | 1007.6 |
| 20260509150029 | 26 | 171 | 0.0 | 0.0 | 0.00 | 0.00 | 0.00 | 26 | 1007.7 |
| 20260509145019 | 26 | 191 | 0.0 | 0.0 | 0.00 | 0.00 | 0.00 | 26 | 1007.7 |
| 20260509144041 | 25 | 133 | 0.0 | 1.6 | 0.00 | 0.00 | 0.00 | 27 | 1007.7 |
| 20260509143030 | 25 | 179 | 0.0 | 0.0 | 0.00 | 0.00 | 0.00 | 28 | 1007.7 |
| 20260509142020 | 24 | 0.0 | 0.0 | 0.00 | 0.00 | 0.00 | 30 | 1007.7 | |
| 20260509141028 | 23 | 0.0 | 0.0 | 0.00 | 0.00 | 0.00 | 31 | 1007.6 | |
| 20260509140026 | 23 | 0.0 | 0.0 | 0.00 | 0.00 | 0.00 | 32 | 1007.6 | |
| 20260509135023 | 22 | 0.0 | 0.0 | 0.00 | 0.00 | 0.00 | 33 | 1007.4 | |
| 20260509134020 | 22 | 0.0 | 0.0 | 0.00 | 0.00 | 0.00 | 33 | 1007.3 | |
| 20260509133019 | 21 | 0.0 | 0.0 | 0.00 | 0.00 | 0.00 | 33 | 1007.3 | |
| 20260509132023 | 21 | 0.0 | 0.0 | 0.00 | 0.00 | 0.00 | 34 | 1007.2 | |
| 20260509131052 | 21 | 0.0 | 0.0 | 0.00 | 0.00 | 0.00 | 34 | 1007.1 | |
| 20260509130028 | 21 | 0.0 | 0.0 | 0.00 | 0.00 | 0.00 | 34 | 1007.0 | |
| 20260509125043 | 21 | 0.0 | 0.0 | 0.00 | 0.00 | 0.00 | 33 | 1006.8 | |
| 20260509124019 | 21 | 0.0 | 0.0 | 0.00 | 0.00 | 0.00 | 33 | 1006.8 | |
| 20260509123041 | 21 | 0.0 | 0.0 | 0.00 | 0.00 | 0.00 | 33 | 1006.7 | |
| 20260509122021 | 21 | 0.0 | 0.0 | 0.00 | 0.00 | 0.00 | 32 | 1006.6 | |
| 20260509121024 | 21 | 0.0 | 0.0 | 0.00 | 0.00 | 0.00 | 32 | 1006.5 | |
| 20260509120040 | 21 | 0.0 | 0.0 | 0.00 | 0.00 | 0.00 | 31 | 1006.5 | |
| 20260509115104 | 21 | 0.0 | 0.0 | 0.00 | 0.00 | 0.00 | 31 | 1006.5 | |
| 20260509114033 | 22 | 0.0 | 0.0 | 0.00 | 0.00 | 0.00 | 31 | 1006.5 | |
| 20260509113023 | 22 | 0.0 | 0.0 | 0.00 | 0.00 | 0.00 | 31 | 1006.5 | |
| 20260509112029 | 22 | 0.0 | 0.0 | 0.00 | 0.00 | 0.00 | 31 | 1006.4 | |
| 20260509111036 | 22 | 0.0 | 0.0 | 0.00 | 0.00 | 0.00 | 30 | 1006.4 | |
| 20260509110032 | 22 | 0.0 | 0.0 | 0.00 | 0.00 | 0.00 | 29 | 1006.3 | |
| 20260509105050 | 23 | 0.0 | 0.0 | 0.00 | 0.00 | 0.00 | 28 | 1006.1 | |
| 20260509104020 | 23 | 0.0 | 0.0 | 0.00 | 0.00 | 0.00 | 28 | 1006.1 | |
| 20260509103029 | 23 | 0.0 | 0.0 | 0.00 | 0.00 | 0.00 | 28 | 1006.1 | |
| 20260509102026 | 23 | 0.0 | 0.0 | 0.00 | 0.00 | 0.00 | 28 | 1006.2 | |
| 20260509101023 | 23 | 0.0 | 0.0 | 0.00 | 0.00 | 0.00 | 27 | 1006.1 | |
| 20260509100020 | 23 | 158 | 0.0 | 0.0 | 0.00 | 0.00 | 0.00 | 27 | 1006.1 |
| 20260509095039 | 23 | 0.0 | 0.0 | 0.00 | 0.00 | 0.00 | 27 | 1006.0 | |
| 20260509094023 | 24 | 0.0 | 0.0 | 0.00 | 0.00 | 0.00 | 27 | 1006.0 | |
| 20260509093030 | 24 | 0.0 | 0.0 | 0.00 | 0.00 | 0.00 | 26 | 1006.1 | |
| 20260509092024 | 24 | 0.0 | 0.0 | 0.00 | 0.00 | 0.00 | 25 | 1006.1 | |
| 20260509091021 | 24 | 0.0 | 0.0 | 0.00 | 0.00 | 0.00 | 25 | 1006.1 | |
| 20260509090036 | 24 | 0.0 | 0.0 | 0.00 | 0.00 | 0.00 | 25 | 1006.1 | |
| 20260509085020 | 25 | 0.0 | 0.0 | 0.00 | 0.00 | 0.00 | 25 | 1006.1 | |
| 20260509084029 | 25 | 0.0 | 0.0 | 0.00 | 0.00 | 0.00 | 24 | 1006.3 | |
| 20260509083052 | 25 | 0.0 | 0.0 | 0.00 | 0.00 | 0.00 | 24 | 1006.1 | |
| 20260509082043 | 25 | 0.0 | 0.0 | 0.00 | 0.00 | 0.00 | 24 | 1006.1 | |
| 20260509081035 | 25 | 0.0 | 0.0 | 0.00 | 0.00 | 0.00 | 24 | 1006.1 | |
| 20260509080039 | 25 | 0.0 | 0.0 | 0.00 | 0.00 | 0.00 | 23 | 1006.3 | |
| 20260509075024 | 26 | 0.0 | 0.0 | 0.00 | 0.00 | 0.00 | 23 | 1006.3 | |
| 20260509074029 | 26 | 0.0 | 0.0 | 0.00 | 0.00 | 0.00 | 23 | 1006.3 | |
| 20260509073037 | 26 | 0.0 | 0.0 | 0.00 | 0.00 | 0.00 | 23 | 1006.3 | |
| 20260509072031 | 26 | 0.0 | 0.0 | 0.00 | 0.00 | 0.00 | 22 | 1006.3 | |
| 20260509071030 | 26 | 0.0 | 0.0 | 0.00 | 0.00 | 0.00 | 22 | 1006.3 | |
| 20260509070020 | 26 | 29 | 0.0 | 0.0 | 0.00 | 0.00 | 0.00 | 22 | |
| 20260509065107 | 27 | 281 | 1.6 | 1.6 | 0.00 | 0.00 | 0.00 | 22 | |
| 20260509064023 | 27 | 248 | 0.0 | 0.0 | 0.00 | 0.00 | 0.00 | 21 | |
| 20260509063024 | 27 | 33 | 0.0 | 0.0 | 0.00 | 0.00 | 0.00 | 21 | |
| 20260509062021 | 27 | 32 | 0.0 | 1.6 | 0.00 | 0.00 | 0.00 | 21 | 1005.9 |
| 20260509061052 | 27 | 17 | 0.0 | 1.6 | 0.00 | 0.00 | 0.00 | 21 | 1005.9 |
| 20260509060024 | 27 | 43 | 0.0 | 1.6 | 0.00 | 0.00 | 0.00 | 21 | 1005.8 |
| 20260509055030 | 27 | 23 | 0.0 | 1.6 | 0.00 | 0.00 | 0.00 | 21 | 1005.7 |
| 20260509054025 | 27 | 26 | 0.0 | 0.0 | 0.00 | 0.00 | 0.00 | 20 | 1005.6 |
| 20260509053042 | 27 | 20 | 0.0 | 0.0 | 0.00 | 0.00 | 0.00 | 20 | 1005.7 |
| 20260509052050 | 28 | 359 | 0.0 | 0.0 | 0.00 | 0.00 | 0.00 | 20 | 1005.7 |
| 20260509051021 | 28 | 29 | 0.0 | 1.6 | 0.00 | 0.00 | 0.00 | 20 | 1005.7 |
| 20260509050026 | 28 | 24 | 0.0 | 0.0 | 0.00 | 0.00 | 0.00 | 20 | 1005.6 |
| 20260509045040 | 28 | 43 | 0.0 | 0.0 | 0.00 | 0.00 | 0.00 | 20 | 1005.5 |
| 20260509044035 | 28 | 0.0 | 0.0 | 0.00 | 0.00 | 0.00 | 20 | 1005.5 | |
| 20260509043040 | 28 | 0.0 | 0.0 | 0.00 | 0.00 | 0.00 | 19 | 1005.4 | |
| 20260509042026 | 29 | 0.0 | 0.0 | 0.00 | 0.00 | 0.00 | 19 | 1005.3 | |
| 20260509041024 | 29 | 0.0 | 0.0 | 0.00 | 0.00 | 0.00 | 19 | 1005.2 | |
| 20260509040030 | 30 | 0.0 | 0.0 | 0.00 | 0.00 | 0.00 | 19 | 1005.1 | |
| 20260509035032 | 30 | 0.0 | 0.0 | 0.00 | 0.00 | 0.00 | 18 | 1005.0 | |
| 20260509034030 | 30 | 0.0 | 0.0 | 0.00 | 0.00 | 0.00 | 20 | 1004.9 | |
| 20260509033042 | 30 | 0.0 | 0.0 | 0.00 | 0.00 | 0.00 | 17 | 1004.8 | |
| 20260509032021 | 30 | 0.0 | 0.0 | 0.00 | 0.00 | 0.00 | 16 | 1004.8 | |
| 20260509031027 | 30 | 0.0 | 0.0 | 0.00 | 0.00 | 0.00 | 15 | 1004.6 | |
| 20260509030042 | 31 | 23 | 0.0 | 0.0 | 0.00 | 0.00 | 0.00 | 14 | 1004.4 |
| 20260509025101 | 31 | 345 | 0.0 | 1.6 | 0.00 | 0.00 | 0.00 | 14 | 1004.4 |